Weather History for KIWA - October, 2012

Change the Weather History Date:

Saturday, October 27, 2012

  Actual Average Record
Temperature  
Mean Temperature 68 °F -  
Max Temperature 84 °F 78 °F 96 °F (2008)
Min Temperature 51 °F 54 °F 46 °F (2006)
Cooling Degree Days 2    
Growing Degree Days 18 (Base 50)    
Moisture  
Dew Point 25 °F    
Average Humidity 26    
Maximum Humidity 41    
Minimum Humidity 11    
Precipitation  
Precipitation 0.00 in - - ()
Sea Level Pressure  
Sea Level Pressure 29.94 in    
Wind  
Wind Speed 2 mph (ESE)    
Max Wind Speed 9 mph    
Max Gust Speed -    
Visibility 12 miles    
Events      
Averages and records for this station are not official NWS values.
T = Trace of Precipitation, MM = Missing Value Source: NWS Daily Summary

Daily Weather History Graph

Daily Weather History Graph

Search for Another Location

Airport or City:

Trip Planner

Search our weather history database for the weather conditions in past years. The results will help you decide how hot, cold, wet, or windy it might be!

Date:

Astronomy

Oct. 27, 2012 Rise Set
Actual Time 6:41 AM MST 5:39 PM MST
Civil Twilight 6:15 AM MST 6:04 PM MST
Nautical Twilight 5:46 AM MST 6:33 PM MST
Astronomical Twilight 5:17 AM MST 7:02 PM MST
Moon 4:24 PM MST (10/27) 4:44 AM MST (10/27)
Length of Visible Light 11h 48m
Length of Day
10h 57m
Waxing Gibbous, 96% of the Moon is Illuminated
Oct 27
Waxing Gibbous
Oct 29
Full
Nov 6
Last Quarter
Nov 13
New
Nov 20
First Quarter

Hourly Weather History & Observations

Time (MST) Temp. Dew Point Humidity Pressure Visibility Wind Dir Wind Speed Gust Speed Precip Events Conditions
12:15 AM 55.4 °F 26.6 °F 33% 29.94 in 10.0 mi Calm Calm - N/A   Clear
12:35 AM 55.4 °F 26.6 °F 33% 29.93 in 10.0 mi SSE 3.5 mph - N/A   Clear
12:55 AM 53.6 °F 26.6 °F 35% 29.93 in 10.0 mi SSE 3.5 mph - N/A   Clear
1:15 AM 51.8 °F 26.6 °F 38% 29.93 in 10.0 mi Calm Calm - N/A   Clear
1:35 AM 51.8 °F 21.2 °F 30% 29.93 in 10.0 mi Calm Calm - N/A   Clear
1:55 AM 55.4 °F 19.4 °F 25% 29.93 in 10.0 mi Calm Calm - N/A   Clear
2:15 AM 53.6 °F 19.4 °F 26% 29.93 in 10.0 mi Calm Calm - N/A   Clear
2:35 AM 53.6 °F 19.4 °F 26% 29.93 in 10.0 mi Calm Calm - N/A   Clear
2:55 AM 51.8 °F 19.4 °F 28% 29.93 in 10.0 mi Calm Calm - N/A   Clear
3:15 AM 53.6 °F 21.2 °F 28% 29.93 in 10.0 mi Calm Calm - N/A   Clear
3:35 AM 53.6 °F 21.2 °F 28% 29.93 in 10.0 mi Calm Calm - N/A   Clear
3:55 AM 55.4 °F 24.8 °F 31% 29.93 in 10.0 mi Calm Calm - N/A   Clear
4:15 AM 51.8 °F 26.6 °F 38% 29.93 in 10.0 mi Calm Calm - N/A   Clear
4:35 AM 51.8 °F 28.4 °F 41% 29.93 in 10.0 mi Calm Calm - N/A   Clear
4:55 AM 51.8 °F 26.6 °F 38% 29.94 in 10.0 mi Calm Calm - N/A   Clear
5:15 AM 51.8 °F 26.6 °F 38% 29.95 in 10.0 mi Calm Calm - N/A   Clear
5:47 AM 53.6 °F 24.8 °F 33% 29.96 in 20.0 mi ESE 5.8 mph - N/A   Partly Cloudy
6:47 AM 53.6 °F 21.2 °F 28% 29.97 in 20.0 mi SE 5.8 mph - N/A   Partly Cloudy
7:47 AM 57.2 °F 23.0 °F 27% 30.00 in 30.0 mi Variable 3.5 mph - N/A   Partly Cloudy
8:47 AM 66.2 °F 24.8 °F 21% 30.01 in 30.0 mi NE 9.2 mph - N/A   Clear
9:47 AM 73.4 °F 24.8 °F 16% 30.00 in 30.0 mi Variable 5.8 mph - N/A   Clear
11:47 AM 78.8 °F 24.8 °F 14% 29.97 in 30.0 mi Calm Calm - N/A   Clear
12:47 PM 80.6 °F 24.8 °F 13% 29.93 in 30.0 mi Calm Calm - N/A   Clear
1:49 PM 82.4 °F 24.8 °F 12% 29.90 in 30.0 mi Calm Calm - N/A   Clear
2:47 PM 84.2 °F 24.8 °F 11% 29.89 in - Calm Calm - N/A   Clear
3:47 PM 84.2 °F 24.8 °F 11% 29.88 in 30.0 mi North 3.5 mph - N/A   Clear
4:47 PM 84.2 °F 24.8 °F 11% 29.88 in 30.0 mi NNW 3.5 mph - N/A   Clear
5:47 PM 78.8 °F 24.8 °F 14% 29.88 in 20.0 mi West 4.6 mph - N/A   Clear
6:47 PM 75.2 °F 26.6 °F 17% 29.91 in 20.0 mi Calm Calm - N/A   Clear
7:47 PM 69.8 °F 26.6 °F 20% 29.92 in 20.0 mi Calm Calm - N/A   Clear
7:55 PM 64.4 °F 28.4 °F 26% 29.92 in 10.0 mi Calm Calm - N/A   Clear
8:15 PM 68.0 °F 30.2 °F 24% 29.93 in 10.0 mi Calm Calm - N/A   Clear
8:35 PM 64.4 °F 30.2 °F 28% 29.93 in 10.0 mi Calm Calm - N/A   Clear
8:47 PM 64.4 °F 30.2 °F 28% 29.94 in 20.0 mi Calm Calm - N/A   Clear
8:55 PM 64.4 °F 30.2 °F 28% 29.94 in 10.0 mi Calm Calm - N/A   Clear
9:15 PM 62.6 °F 30.2 °F 30% 29.95 in 10.0 mi Calm Calm - N/A   Clear
9:35 PM 60.8 °F 30.2 °F 31% 29.96 in 10.0 mi ESE 4.6 mph - N/A   Clear
9:55 PM 60.8 °F 26.6 °F 27% 29.96 in 10.0 mi ESE 5.8 mph - N/A   Clear
10:15 PM 62.6 °F 28.4 °F 27% 29.96 in 10.0 mi SE 4.6 mph - N/A   Clear
10:35 PM 57.2 °F 23.0 °F 27% 29.96 in 10.0 mi ESE 6.9 mph - N/A   Clear
10:55 PM 57.2 °F 26.6 °F 31% 29.95 in 10.0 mi ESE 5.8 mph - N/A   Clear
11:15 PM 60.8 °F 28.4 °F 29% 29.95 in 10.0 mi SE 5.8 mph - N/A   Clear
11:35 PM 57.2 °F 23.0 °F 27% 29.95 in 10.0 mi East 6.9 mph - N/A   Clear
11:55 PM 60.8 °F 23.0 °F 23% 29.95 in 10.0 mi ESE 5.8 mph - N/A   Clear